When you browse on this site, cookies collect data to enhance your experience and personalize the content and advertising you see.
Visit our Privacy Policy to learn more. By continuing to use the site, you agree to this use of cookies and data.
  • In Hungary
  • List of Countries
  • For 7 days
  • Water Temperature
  • Satellite Maps
  • Weather Map
  • News
  • Weather Widgets
  • user-avatar
    Login

    Hourly Weather Przytyk

    Today, 27 May, Monday

    Time Temperature Precipitation Wind Pressure Humidity
    00:00 +14°C° 0 mm 2 mps 733 mmHg 90%
    01:00 +13°C° 0 mm 2 mps 733 mmHg 91%
    02:00 +13°C° 0 mm 2 mps 733 mmHg 92%
    03:00 +13°C° 0 mm 2 mps 733 mmHg 92%
    04:00 +13°C° 0 mm 2 mps 733 mmHg 92%
    05:00 +15°C° 0 mm 2 mps 733 mmHg 88%
    06:00 +16°C° 0 mm 2 mps 733 mmHg 84%
    07:00 +18°C° 0 mm 3 mps 733 mmHg 80%
    08:00 +20°C° 0.2 mm 3 mps 733 mmHg 75%
    09:00 +21°C° 0.2 mm 3 mps 733 mmHg 69%
    10:00 +24°C° 0.2 mm 3 mps 733 mmHg 63%
    11:00 +24°C° 0.3 mm 3 mps 732 mmHg 61%
    12:00 +25°C° 0.3 mm 3 mps 732 mmHg 60%
    13:00 +25°C° 0.3 mm 3 mps 732 mmHg 58%
    14:00 +25°C° 0.5 mm 3 mps 732 mmHg 61%
    15:00 +25°C° 0.5 mm 3 mps 731 mmHg 64%
    16:00 +24°C° 0.5 mm 3 mps 731 mmHg 67%
    17:00 +23°C° 0.2 mm 2 mps 731 mmHg 71%
    18:00 +21°C° 0.2 mm 2 mps 730 mmHg 76%
    19:00 +21°C° 0.2 mm 1 mps 730 mmHg 80%
    20:00 +19°C° 0.3 mm 2 mps 730 mmHg 82%
    21:00 +18°C° 0.3 mm 2 mps 730 mmHg 85%
    22:00 +17°C° 0.3 mm 2 mps 730 mmHg 88%
    23:00 +17°C° 0.5 mm 2 mps 729 mmHg 90%

    Tomorrow, 28 May, Tuesday

    Time Temperature Precipitation Wind Pressure Humidity
    00:00 +17°C° 0.5 mm 2 mps 729 mmHg 91%
    01:00 +16°C° 0.5 mm 1 mps 729 mmHg 93%
    02:00 +16°C° 0.1 mm 1 mps 728 mmHg 94%
    03:00 +16°C° 0.1 mm 1 mps 728 mmHg 95%
    04:00 +15°C° 0.1 mm 1 mps 728 mmHg 96%
    05:00 +17°C° 0 mm 2 mps 728 mmHg 92%
    06:00 +18°C° 0 mm 2 mps 727 mmHg 89%
    07:00 +19°C° 0 mm 3 mps 727 mmHg 85%
    08:00 +20°C° 0.1 mm 3 mps 727 mmHg 79%
    09:00 +22°C° 0.1 mm 3 mps 727 mmHg 73%
    10:00 +23°C° 0.1 mm 4 mps 727 mmHg 68%
    11:00 +24°C° 0.8 mm 3 mps 727 mmHg 70%
    12:00 +22°C° 0.8 mm 3 mps 727 mmHg 73%
    13:00 +22°C° 0.8 mm 3 mps 727 mmHg 76%
    14:00 +23°C° 1 mm 2 mps 726 mmHg 73%
    15:00 +23°C° 1 mm 1 mps 726 mmHg 71%
    16:00 +21°C° 1 mm 0 mps 726 mmHg 68%
    17:00 +22°C° 1.9 mm 1 mps 726 mmHg 73%
    18:00 +20°C° 1.9 mm 1 mps 726 mmHg 77%
    19:00 +19°C° 1.9 mm 1 mps 726 mmHg 82%
    20:00 +17°C° 0 mm 2 mps 727 mmHg 85%
    21:00 +16°C° 0 mm 2 mps 727 mmHg 87%
    22:00 +15°C° 0 mm 2 mps 728 mmHg 90%
    23:00 +14°C° 0.1 mm 3 mps 728 mmHg 92%

    Day after tomorrow, 29 May, Wednesday

    Time Temperature Precipitation Wind Pressure Humidity
    00:00 +13°C° 0.1 mm 3 mps 728 mmHg 95%
    01:00 +13°C° 0.1 mm 4 mps 729 mmHg 97%
    02:00 +13°C° 0.1 mm 4 mps 729 mmHg 96%
    03:00 +12°C° 0.1 mm 4 mps 730 mmHg 96%
    04:00 +12°C° 0.1 mm 4 mps 730 mmHg 95%
    05:00 +10°C° 0.1 mm 5 mps 731 mmHg 94%
    06:00 +10°C° 0.1 mm 5 mps 731 mmHg 93%
    07:00 +9°C° 0.1 mm 6 mps 732 mmHg 92%
    08:00 +9°C° 0.3 mm 5 mps 732 mmHg 90%
    09:00 +11°C° 0.3 mm 4 mps 733 mmHg 89%
    10:00 +11°C° 0.3 mm 4 mps 733 mmHg 88%
    11:00 +12°C° 0.2 mm 4 mps 734 mmHg 85%
    12:00 +12°C° 0.2 mm 3 mps 734 mmHg 83%
    13:00 +13°C° 0.2 mm 3 mps 734 mmHg 80%
    14:00 +13°C° 0 mm 3 mps 734 mmHg 77%
    15:00 +14°C° 0 mm 3 mps 734 mmHg 75%
    16:00 +16°C° 0 mm 3 mps 734 mmHg 72%
    17:00 +14°C° 0 mm 3 mps 735 mmHg 75%
    18:00 +13°C° 0 mm 3 mps 735 mmHg 77%
    19:00 +13°C° 0 mm 2 mps 735 mmHg 80%
    20:00 +13°C° 0.1 mm 2 mps 735 mmHg 82%
    21:00 +12°C° 0.1 mm 2 mps 735 mmHg 84%
    22:00 +10°C° 0.1 mm 2 mps 735 mmHg 86%
    23:00 +10°C° 0.4 mm 3 mps 735 mmHg 87%

    30 May, Thursday

    Time Temperature Precipitation Wind Pressure Humidity
    00:00 +10°C° 0.4 mm 3 mps 735 mmHg 89%
    01:00 +10°C° 0.4 mm 3 mps 735 mmHg 90%
    02:00 +10°C° 1.7 mm 3 mps 736 mmHg 92%
    03:00 +10°C° 1.7 mm 3 mps 736 mmHg 93%
    04:00 +10°C° 1.7 mm 3 mps 736 mmHg 95%
    05:00 +9°C° 2 mm 3 mps 736 mmHg 95%
    06:00 +8°C° 2 mm 4 mps 736 mmHg 95%
    07:00 +8°C° 2 mm 4 mps 736 mmHg 95%
    08:00 +8°C° 0.5 mm 4 mps 737 mmHg 95%
    09:00 +8°C° 0.5 mm 4 mps 737 mmHg 94%
    10:00 +8°C° 0.5 mm 4 mps 737 mmHg 94%
    11:00 +9°C° 0 mm 3 mps 737 mmHg 92%
    12:00 +10°C° 0 mm 3 mps 737 mmHg 89%
    13:00 +10°C° 0 mm 2 mps 737 mmHg 87%
    14:00 +12°C° 0 mm 2 mps 737 mmHg 84%
    15:00 +13°C° 0 mm 2 mps 737 mmHg 82%
    16:00 +14°C° 0 mm 1 mps 737 mmHg 79%
    17:00 +14°C° 0 mm 1 mps 737 mmHg 81%
    18:00 +13°C° 0 mm 1 mps 737 mmHg 84%
    19:00 +12°C° 0 mm 0 mps 736 mmHg 86%
    20:00 +11°C° 0 mm 0 mps 737 mmHg 88%
    21:00 +12°C° 0 mm 1 mps 737 mmHg 89%
    22:00 +11°C° 0 mm 1 mps 737 mmHg 90%
    23:00 +10°C° 0 mm 1 mps 736 mmHg 91%

    31 May, Friday

    Time Temperature Precipitation Wind Pressure Humidity
    00:00 +10°C° 0 mm 1 mps 736 mmHg 93%
    01:00 +9°C° 0 mm 1 mps 736 mmHg 94%
    02:00 +9°C° 0 mm 1 mps 736 mmHg 94%
    03:00 +9°C° 0 mm 1 mps 735 mmHg 94%
    04:00 +9°C° 0 mm 1 mps 735 mmHg 94%
    05:00 +10°C° 0 mm 1 mps 735 mmHg 90%
    06:00 +12°C° 0 mm 2 mps 735 mmHg 85%
    07:00 +14°C° 0 mm 2 mps 735 mmHg 81%
    08:00 +15°C° 0 mm 2 mps 734 mmHg 75%
    09:00 +17°C° 0 mm 2 mps 734 mmHg 70%
    10:00 +18°C° 0 mm 2 mps 733 mmHg 64%
    11:00 +19°C° 0 mm 2 mps 733 mmHg 61%
    12:00 +21°C° 0 mm 1 mps 733 mmHg 59%
    13:00 +22°C° 0 mm 1 mps 733 mmHg 56%
    14:00 +20°C° 0.6 mm 4 mps 733 mmHg 63%
    15:00 +19°C° 0.6 mm 6 mps 734 mmHg 71%
    16:00 +17°C° 0.6 mm 8 mps 734 mmHg 79%
    17:00 +12°C° 0.2 mm 9 mps 735 mmHg 82%
    18:00 +8°C° 0.2 mm 9 mps 736 mmHg 85%
    19:00 +5°C° 0.2 mm 9 mps 737 mmHg 88%
    20:00 +5°C° 0.4 mm 7 mps 738 mmHg 88%
    21:00 +6°C° 0.4 mm 5 mps 739 mmHg 89%
    22:00 +7°C° 0.4 mm 3 mps 740 mmHg 89%
    23:00 +6°C° 0 mm 4 mps 740 mmHg 87%

    1 June, Saturday

    Time Temperature Precipitation Wind Pressure Humidity
    00:00 +5°C° 0 mm 4 mps 741 mmHg 85%
    01:00 +5°C° 0 mm 5 mps 741 mmHg 83%
    02:00 +5°C° 0 mm 4 mps 741 mmHg 83%
    03:00 +4°C° 0 mm 4 mps 741 mmHg 83%
    04:00 +4°C° 0 mm 4 mps 741 mmHg 83%
    05:00 +5°C° 0 mm 4 mps 742 mmHg 81%
    06:00 +6°C° 0 mm 5 mps 742 mmHg 78%
    07:00 +7°C° 0 mm 5 mps 742 mmHg 75%
    08:00 +8°C° 0 mm 5 mps 742 mmHg 69%
    09:00 +10°C° 0 mm 5 mps 742 mmHg 63%
    10:00 +12°C° 0 mm 5 mps 742 mmHg 57%
    11:00 +13°C° 0 mm 6 mps 742 mmHg 56%
    12:00 +13°C° 0 mm 6 mps 742 mmHg 55%
    13:00 +14°C° 0 mm 6 mps 742 mmHg 54%
    14:00 +14°C° 0 mm 6 mps 742 mmHg 57%
    15:00 +13°C° 0 mm 6 mps 742 mmHg 60%
    16:00 +13°C° 0 mm 6 mps 742 mmHg 63%
    17:00 +12°C° 0 mm 5 mps 742 mmHg 68%
    18:00 +10°C° 0 mm 5 mps 742 mmHg 72%
    19:00 +10°C° 0 mm 4 mps 743 mmHg 77%
    20:00 +8°C° 0 mm 4 mps 743 mmHg 80%
    21:00 +7°C° 0 mm 4 mps 743 mmHg 83%
    22:00 +6°C° 0 mm 4 mps 743 mmHg 85%
    23:00 +6°C° 0 mm 4 mps 744 mmHg 86%
    Show more